DECAYED

FENGYUN 1C DEB, 31659 (Decayed)

Orbit data source: Space-Track

FENGYUN 1C DEB, 31659 was space debris in SSO originally from a launch on Mon, 10 May 1999 UTC launched from the Taiyaun Space Center, China (TSC). Fengyun 1C debris stems from the Chinese weather satellite Fengyun-1C, which was intentionally destroyed by a Chinese anti-satellite missile in 2007. This event dramatically increased the amount of space debris, with thousands of trackable fragments posing hazards to satellites and human spaceflight. The Fengyun 1C debris cloud has become a focal point in discussions about space sustainability and the need for international regulations to prevent the creation of new debris.

Not visible in the next 10 days
Identifier
31659, 1999-025CBR
Orbit
Decayed
Country
Flag of CNCN / PRC
Related business
Manufacturer
Unknown
Mission
Decayed spacecraft
Bus & Motor
Unknown
Mass
Unknown
Launch date (UTC)
1999-05-10 (27 years ago)
Launch vehicle
Unknown
Launch site
Taiyaun Space Center, China (TSC)
Object type
Payload
Rocket body
Debris
Shape & HBR
Unknown shape, 0.1 m
Radar Cross Section
Small (<0.1 m²)

Expand to show TLE details & history
Last TLE update: 1 year ago

TLE from 1 year ago
0 FENGYUN 1C DEB
1 31659U 99025CBR 25105.60100509  .00273438  00000-0  48899-2 0  9990
2 31659  98.9814  51.2472 0045420 157.5273 202.7976 15.47887596951313
Epoch: 2025-04-15T14:25Z
TLE epoch observation values (Epoch: 2025-04-15T14:25:26.839Z)
Latitude
0.00002°
Longitude
-9.11391°
Altitude
454.489 km
Speed
7.624 km/s
True Right ascension
03h 24m 59s
True Declination
0° 00' 00"
Sunlit
Object was in daylight at epoch
Visualization orbit readout
Latitude
Unknown
Longitude
Unknown
Altitude
Unknown
Speed
Unknown
Apparent Right ascension
Unknown
Apparent Declination
Unknown
Sunlit
N/A
Visualization observer readout
Local Sidereal Time
23:19:54
Azimuth
Unknown
Elevation
Unknown
Doppler factor
Unknown
Orbital elements
Apogee altitude
450.787 km
Perigee altitude
389.034 km
Semi-major axis
6,798.048 km
Eccentricity
0.00454
Inclination
98.9814°
RAAN
51.2472°
Arg. of periapsis
157.5273°
True anomaly
202.59698°
Mean anomaly
202.7976°
Eccentric anomaly
202.69718°
Mean motion
3.87228 °/min
Orbital period
92.97 mins
BSTAR
0.0048899
Loading maneuver chart data...
Computing Atmospheric mass density...

Documentation

Showing up to 5 results
|